Location: Asheville, NC
(35.6000°N, 82.5500°W)
Time: 16:55:35
(UTC-05:00)

Vanguard 2 Rocket - Pass Details

Date: 16 February 2018
Orbit: 555 x 3327 km, 32.9° (Epoch: 17 February)

Event Time Altitude Azimuth Distance (km) Brightness Sun altitude
Exits shadow 06:13:33 15° 278° (W) 5,853 10.3 -13.3°
Maximum altitude 06:30:19 51° 213° (SSW) 3,501 9.7 -9.9°
Drops below altitude 10° 06:44:26 10° 142° (SE) 4,769 11.3 -7.1°
Sets 06:47:40 0° 137° (SE) 5,448 11.8 -6.4°
